Location: Treviso
(45.6669°N, 12.2430°E)
Time: 11:29:47
(UTC+01:00)

ISS - Pass Details

Date: 21 March 2023
Orbit: 414 x 423 km, 51.6° (Epoch: 20 March)

Event Time Altitude Azimuth Distance (km) Brightness Sun altitude
Rises 19:26:10 0° 261° (W) 2,354 1.5 -11.5°
Reaches altitude 10° 19:28:20 10° 268° (W) 1,491 0.4 -11.9°
Maximum altitude 19:31:33 43° 342° (NNW) 601 -2.7 -12.4°
Enters shadow 19:34:26 12° 53° (NE) 1,368 -1.5 -12.9°
